Location: Anuling
(14.1239°N, 120.8922°E)
Time: 04:40:42
(UTC+00:00)

ARIANE 5 R/B - Pass Details

Date: 14 January 2026
Orbit: 746 x 793 km, 98.8° (Epoch: 7 February)

Event Time Altitude Azimuth Distance (km) Brightness Sun altitude
Rises 10:04:32 0° 169° (S) 3,260 5.9 -4.9°
Reaches altitude 10° 10:06:50 10° 170° (S) 2,338 5.2 -5.4°
Maximum altitude 10:12:00 81° 257° (WSW) 802 2.8 -6.6°
Drops below altitude 10° 10:17:13 10° 345° (NNW) 2,353 5.0 -7.7°
Sets 10:19:32 0° 346° (NNW) 3,282 5.7 -8.3°
